Regional & State Weather Roundups


070 
ASUS43 KIND 261209
RWRIN 
WEATHER ROUNDUP FOR INDIANA
NATIONAL WEATHER SERVICE INDIANAPOLIS IN
800 AM EDT TUE SEP 26 2017
NOTE: "FAIR" INDICATES FEW OR NO CLOUDS BELOW 12,000 FEET WITH NO
SIGNIFICANT WEATHER AND/OR OBSTRUCTIONS TO VISIBILITY.
* - STATION DOES NOT REPORT WEATHER SUCH AS PRECIPITATION OR FOG.
+ - STATION NOT QUALITY CONTROLLED BY THE NATIONAL WEATHER SERVICE.
    USE DATA WITH CAUTION...ESPECIALLY DEWPOINT AND RELATIVE
    HUMIDITY OBSERVATIONS.
INZ001>003-010>013-019-020-261300-
NORTHWEST INDIANA
  
CITY           SKY/WX    TMP DP  RH WIND       PRES   REMARKS
GARY /AIRPORT/ PTCLDY    70  61  73 S5        29.97R                  
KNOX *+        CLEAR     61  59  94 CALM      29.98R                  
LA PORTE +     CLEAR     61  59  93 CALM      29.99R                  
6HR MIN TEMP:  60; 6HR MAX TEMP:  63;                                
MICHIGAN CITY+ CLEAR     63  61  94 CALM      29.98R                  
MONTICELLO +   CLEAR     67  64  91 S3        29.99R                  
6HR MIN TEMP:  64; 6HR MAX TEMP:  69;                                
RENSSELAER +   PTCLDY    66  59  77 SE5       29.99R                  
VALPARAISO     CLEAR     63  60  90 CALM      29.98R                  
6HR MIN TEMP:  63; 6HR MAX TEMP:  67;                                
$$
LMZ046-743>745-261300-
SOUTHERN LAKE MICHIGAN
  
STATION/POSITION TIME  TEMP    WIND        PRES    WAVE
                       AIR SEA DIR/SP/G            HT
                 (UTC) (F)     (DEG/KT/KT) (MB)    (FT)
BURNS HARBOR     1140   71     180/  7/ 10 1015.2R
MICHIGAN CITY    1140   73     180/ 10/ 12   N/A
5NW MICH CITY    1200   72 71  210/  6/  8   N/A     1
$$
INZ004-005-014>016-021>024-261300-
NORTH CENTRAL INDIANA
  
CITY           SKY/WX    TMP DP  RH WIND       PRES   REMARKS
ELKHART        CLEAR     63  59  88 CALM      29.99R                  
GOSHEN         CLEAR     62  58  86 CALM      30.00R                  
6HR MIN TEMP:  61; 6HR MAX TEMP:  64;                                
LOGANSPORT +   CLEAR     63  61  94 CALM      30.01R                  
PERU/GRISSOM   CLEAR     65  63  92 S5        30.00R                  
6HR MIN TEMP:  65; 6HR MAX TEMP:  68;                                
SOUTH BEND     CLEAR     65  60  84 CALM      29.99R                  
6HR MIN TEMP:  62; 6HR MAX TEMP:  65;                                
WARSAW +       CLEAR     61  61 100 CALM      30.01R                  
$$
INZ006>009-017-018-025>027-261300-
NORTHEAST INDIANA
  
CITY           SKY/WX    TMP DP  RH WIND       PRES   REMARKS
AUBURN +       CLEAR     61  59  94 CALM      30.02R FOG              
FORT WAYNE     CLEAR     64  60  87 S3        30.02R                  
6HR MIN TEMP:  61; 6HR MAX TEMP:  65;                                
HUNTINGTON +   CLEAR     64  62  96 S3        30.01R                  
6HR MIN TEMP:  61; 6HR MAX TEMP:  65;                                
KENDALLVILLE + CLEAR     64  61  88 CALM      30.02R                  
$$
INZ028-029-035-036-043>045-051>053-261300-
WEST CENTRAL INDIANA
  
CITY           SKY/WX    TMP DP  RH WIND       PRES   REMARKS
CRAWFORDSVL +  CLEAR     63  63 100 SE3       30.02R                  
GREENCASTLE +  CLEAR     63  61  94 CALM      30.03R                  
LAFAYETTE      CLEAR     65  64  97 CALM      29.99R                  
6HR MIN TEMP:  64; 6HR MAX TEMP:  69;                                
TERRE HAUTE    CLEAR     63  61  93 E3        30.01R FOG              
6HR MIN TEMP:  63; 6HR MAX TEMP:  68;                                
$$
INZ030>032-037>040-046>048-054>057-064-065-261300-
CENTRAL INDIANA
  
CITY           SKY/WX    TMP DP  RH WIND       PRES   REMARKS
ANDERSON       CLEAR     66  63  88 CALM      30.04                   
CP ATTERBURY + CLEAR     59  59 100 CALM      30.03R                  
COLUMBUS       CLEAR     63  61  94 CALM      30.03R                  
FISHERS *+     CLEAR     63  63 100 CALM      30.03R                  
FRANKFORT +    CLOUDY    64  62  94 CALM      30.03R FOG              
6HR MIN TEMP:  64; 6HR MAX TEMP:  68;                                
GREENWOOD *+   CLEAR     66  64  92 CALM      30.03R                  
6HR MIN TEMP:  66; 6HR MAX TEMP:  71;                                
INDIANAPOLIS   PTCLDY    68  63  84 CALM      30.03R                  
6HR MIN TEMP:  67; 6HR MAX TEMP:  72;                                
-EAGLE CREEK   CLEAR     65  63  93 CALM      30.02R                  
6HR MIN TEMP:  65; 6HR MAX TEMP:  71;                                
KOKOMO +       CLEAR     65  62  90 S6        30.02R                  
6HR MIN TEMP:  63; 6HR MAX TEMP:  67;                                
MT COMFORT *+  CLEAR     63  61  94 CALM      30.03R                  
SHELBYVILLE    CLEAR     64  60  87 CALM      30.02R                  
6HR MIN TEMP:  63; 6HR MAX TEMP:  66;                                
ZIONSVILLE +   CLEAR     60  60  98 CALM      30.03R                  
6HR MIN TEMP:  60; 6HR MAX TEMP:  63;                                
$$
INZ033-034-041-042-049-050-058-059-261300-
EAST CENTRAL INDIANA
  
CITY           SKY/WX    TMP DP  RH WIND       PRES   REMARKS
MUNCIE         CLEAR     70  63  78 S5        30.03R                  
6HR MIN TEMP:  66; 6HR MAX TEMP:  73;                                
RICHMOND +     CLEAR     59  59 100 CALM      30.06R                  
$$
INZ060-061-067>069-081>083-085>088-261300-
SOUTHWEST INDIANA
  
CITY           SKY/WX    TMP DP  RH WIND       PRES   REMARKS
EVANSVILLE     CLEAR     66  65  96 CALM      30.01R FOG              
6HR MIN TEMP:  66; 6HR MAX TEMP:  70;                                
HUNTINGBURG +  CLEAR     65  65 100 CALM      30.02R FOG              
6HR MIN TEMP:  63; 6HR MAX TEMP:  69;                                
WASHINGTON +     N/A     63  61  94 CALM      30.00S FOG              
6HR MIN TEMP:  62; 6HR MAX TEMP:  65;                                
$$
INZ062-063-066-070>080-084-089>092-261300-
SOUTH CENTRAL AND SOUTHEAST INDIANA
  
CITY           SKY/WX    TMP DP  RH WIND       PRES   REMARKS
BEDFORD +      CLEAR     63  61  94 CALM      30.02R FOG              
BLOOMINGTON    CLEAR     63  59  87 CALM      30.03R                  
6HR MIN TEMP:  62; 6HR MAX TEMP:  67;                                
MADISON *+     CLEAR     61  61 100 CALM      30.05R                  
NORTH VERNON + CLEAR     61  61 100 CALM      30.04R FOG              
SEYMOUR +      FOG       61  61 100 CALM      30.03R VSB 1/4          
$$